This is the latest recevied weather packets stored in our database for station/object KN6WGU. If no packets are shown the sender has not sent any weather packets the latest 10 day(s).
| Time | Temp. | Humidity | Pressure | Rain* | Wind** | Luminosity | Snow |
|---|---|---|---|---|---|---|---|
| 1778096580 | 12.22° C | 65% | 1005.8 hPa | 0 mm | - | 259 W/m² | - |
| 1778096278 | 12.78° C | 65% | 1006.1 hPa | 0 mm | - | 315 W/m² | - |
| 1778095974 | 13.33° C | 62% | 1006.1 hPa | 0 mm | - | 164 W/m² | - |
| 1778095670 | 12.78° C | 64% | 1006 hPa | 0 mm | - | 218 W/m² | - |
| 1778095368 | 13.33° C | 61% | 1005.8 hPa | 0 mm | - | 230 W/m² | - |
| 1778095064 | 13.33° C | 63% | 1005.8 hPa | 0 mm | - | 323 W/m² | - |
| 1778094761 | 13.33° C | 64% | 1005.6 hPa | 0 mm | - | 597 W/m² | - |
| 1778094458 | 13.89° C | 65% | 1005.9 hPa | 0 mm | - | 341 W/m² | - |
| 1778094154 | 13.89° C | 59% | 1005.6 hPa | 0 mm | - | 361 W/m² | - |
| 1778093852 | 13.33° C | 57% | 1006 hPa | 0 mm | - | 375 W/m² | - |
| 1778093548 | 13.89° C | 62% | 1005.9 hPa | 0 mm | - | 299 W/m² | - |
| 1778093246 | 13.33° C | 62% | 1005.8 hPa | 0 mm | - | 259 W/m² | - |
| 1778092943 | 13.33° C | 58% | 1005.8 hPa | 0 mm | - | 333 W/m² | - |
| 1778092640 | 13.33° C | 61% | 1006 hPa | 0 mm | - | 704 W/m² | - |
| 1778092335 | 13.33° C | 65% | 1006 hPa | 0 mm | - | 678 W/m² | - |
| 1778092033 | 13.33° C | 65% | 1006.2 hPa | 0 mm | - | 600 W/m² | - |
| 1778091730 | 13.33° C | 70% | 1006.2 hPa | 0 mm | - | 811 W/m² | - |
| 1778091428 | 12.78° C | 66% | 1006 hPa | 0 mm | - | 714 W/m² | - |
| 1778091125 | 12.22° C | 71% | 1006.1 hPa | 0 mm | - | 574 W/m² | - |
| 1778090822 | 12.22° C | 70% | 1006.2 hPa | 0 mm | - | 452 W/m² | - |
| 1778090517 | 12.22° C | 71% | 1006.3 hPa | 0 mm | - | 258 W/m² | - |
| 1778090214 | 12.22° C | 70% | 1006.4 hPa | 0 mm | - | 498 W/m² | - |
| 1778089911 | 12.22° C | 72% | 1006.1 hPa | 0 mm | - | 541 W/m² | - |
| 1778089609 | 12.22° C | 70% | 1006.2 hPa | 0 mm | - | 510 W/m² | - |
| 1778089305 | 12.22° C | 70% | 1006.2 hPa | 0 mm | - | 341 W/m² | - |
* Rain latest hour (hover to see other rain measurements)
** Current wind speed in m/s (hover to see current wind gust speed)